Current Version              Previous Version:    01  02  03  04  05  06  07  08  09  10  11  12  13  14  15  16  17  18  19  20  21  22  23  24  25  26  27  28  29  30  
   31  32  33  34  35  36  37  38  39  40  41  42  43  44  45  46  47  48  49  50  51  52  53  54  55  56  57  58  59  60  

[Printable]
609
ASUS44 KLUB 260601
RWRTX
WEST TEXAS WEATHER ROUNDUP
NATIONAL WEATHER SERVICE LUBBOCK TX
1200 AM CST WED NOV 26 2014

NOTE: "FAIR" INDICATES FEW OR NO CLOUDS BELOW 12,000 FEET WITH NO
SIGNIFICANT WEATHER AND/OR OBSTRUCTIONS TO VISIBILITY.

TXZ004-006>008-010-012-014-016-OKZ002-260700-
TEXAS PANHANDLE/OKLAHOMA PANHANDLE

CITY           SKY/WX    TMP DP  RH WIND       PRES   REMARKS
AMARILLO       CLEAR     41  19  41 W10       30.01R
BORGER         CLEAR     43  15  32 SW10      29.97S
CANADIAN       CLEAR     33  20  57 CALM      29.96R
DALHART        CLEAR     35  19  52 W10       30.02R WCI  27
DUMAS            N/A     34  17  48 W12       29.99R WCI  26
GUYMON         CLEAR     34  17  50 SW5       29.96R WCI  30
HEREFORD       CLEAR     37  19  47 SW12      30.03R WCI  30
$$

TXZ026-029-035-045-048-260700-
SOUTHERN PANHANDLE/SOUTH PLAINS/ROLLING PLAINS

CITY           SKY/WX    TMP DP  RH WIND       PRES   REMARKS
CHILDRESS      CLEAR     42  17  36 W10       29.98F
LUBBOCK        CLEAR     42  11  28 W10       30.03F
$$

TXZ052-054-060>062-072-078-127-140-154-169-260700-
PERMIAN BASIN/CONCHO VALLEY/BIG COUNTRY/EDWARDS PLATEAU

CITY           SKY/WX    TMP DP  RH WIND       PRES   REMARKS
ABILENE        CLEAR     47  22  37 SW18      30.08F
JUNCTION       CLEAR     32  25  75 CALM      30.20R
MIDLAND        CLEAR     45  13  27 SW9       30.14S
ODESSA         CLEAR     42  11  28 SW8       30.15S
SAN ANGELO     CLEAR     37  22  54 SW12      30.15F WCI  29
WINK           CLEAR     44  10  25 W9        30.14S
$$

TXZ055-058-074-075-080-082-260700-
FAR WEST/SOUTHWEST MOUNTAINS/TRANS PECOS

CITY           SKY/WX    TMP DP  RH WIND       PRES   REMARKS
ALPINE         PTCLDY    45   8  22 SW14G24   30.29S
DRYDEN           N/A     46  16  30 W6        30.19S
EL PASO        PTCLDY    48   6  18 W3        30.27S
FORT STOCKTON  CLEAR     46  13  26 SW15      30.18R
MARFA          PTCLDY    36   9  32 S6        30.29S WCI  31
$$

TXZ014-016-019-021>030-083-260700
TEXAS TECH WEST TEXAS MESONET/TEXAS PANHANDLE/NORTHERN SOUTH PLAINS

CITY           SKY/WX    TMP DP  RH WIND       PRES   REMARKS
ABERNATHY 5ENE   N/A     37  12  35 W10       30.03F WCI  30
AMARILLO 9NNE    N/A     35  20  53 SW2       30.01R
AMARILLO 7SSE    N/A     42  18  37 W10       30.01S
AMHERST 1NE      N/A     44  10  24 W15       30.04F
BOOTLEG 11WNW    N/A     39  15  36 W13       30.06S WCI  32
CANADIAN 6E      N/A     34  15  47 W7        29.94S WCI  27
CAPROCK CYN SP   N/A     45  14  27 W17       29.98F
CHILDRESS 2NNE   N/A     44  16  32 SW10      29.96F
CLARENDON 2WSW   N/A     42  16  36 W10       29.97F
CLAUDE 12SW      N/A     41  16  36 W9        29.99S
DIMMITT 2NE      N/A     40  12  31 W13       30.02S WCI  33
FLOYDADA 2NNE    N/A     35  11  38 SW10      30.02S WCI  27
FRIONA 2NE       N/A     38  12  34 W10       30.05S WCI  31
GOODLETT 3W      N/A     38  21  51 SW10      29.97F WCI  31
HART 3N          N/A     33  15  47 W9        30.03R WCI  26
HEREFORD 2NW     N/A     36  14  41 W12       30.03R WCI  28
MCLEAN 1E        N/A     44  17  33 W12       29.94S
MEMPHIS 1NE      N/A     32  21  64 W3        29.97F
MULESHOE 2SSW    N/A     40  10  28 W14       30.05F WCI  32
OLTON 6S         N/A     42  11  28 W13       30.03F
PALO DURO SP     N/A     39  16  39 W16       30.01S WCI  30
PAMPA 2E         N/A     42  19  39 W10       29.96S
PLAINVIEW 1S     N/A     36  16  44 W8        30.01S WCI  29
SILVERTON 7ESE   N/A     35  15  43 W8        30.00F WCI  29
TULIA 2ENE       N/A     42  15  34 W14       30.00F
TURKEY 2WSW      N/A     46  14  27 W8        29.97F
UMBARGER 3NNE    N/A     37  17  43 W12       30.01S WCI  30
$$

TXZ033>036-039>041-045>048-260700
TEXAS TECH WEST TEXAS MESONET/SOUTH PLAINS

CITY           SKY/WX    TMP DP  RH WIND       PRES   REMARKS
AIKEN 3WSW       N/A     31  16  53 W8        30.03S WCI  24
ANTON 6SSW       N/A     41  12  30 W10       30.05F
BROWNFIELD 2S    N/A     38  10  32 W9        30.09R WCI  31
DENVR CTY 7WNW   N/A     41   9  27 W13       30.10S
GAIL 2ESE        N/A     43  16  33 SW14      30.07F
LAMESA 2SE       N/A     39  17  41 SW12      30.11S WCI  32
LEVELLAND 4S     N/A     44   8  22 W12       30.07S
LUBBOCK 3WNW     N/A     44  10  24 W10       30.05F
MORTON 1ENE      N/A     43   8  23 W15       30.07S
ODONNELL 1N      N/A     38  17  42 SW12      30.08S WCI  30
PLAINS 3N        N/A     46   6  19 W20       30.09S
RALLS 1SE        N/A     44  11  27 W10       30.04S
REESE CENTER     N/A     44   9  24 W13       30.05S
SEAGRAVES 1SW    N/A     39  12  32 W7        30.10S WCI  34
SEMINOLE 2NNE    N/A     40  12  31 W10       30.11S WCI  33
SLATON 2NE       N/A     40  12  31 W9        30.04F WCI  34
SNYDER 3E        N/A     38  22  52 S9        30.08S WCI  31
SUNDOWN 8SW      N/A     43   9  24 W12       30.08S
TAHOKA 3NNE      N/A     40  13  33 SW9       30.06S WCI  33
WOLFFORTH 6SSW   N/A     40  11  30 SW7       30.06S
$$

TXZ031-032-036>038-042>044-260700-
TEXAS TECH WEST TEXAS MESONET/ROLLING PLAINS

CITY           SKY/WX    TMP DP  RH WIND       PRES   REMARKS
ASPERMONT 3NE    N/A     46  21  37 SW13      30.04F
FLUVANNA 3WNW    N/A     40  18  39 SW9       30.07F WCI  35
GRAHAM 5SSW      N/A     43  15  32 W15       30.06S
GUTHRIE 10WSW    N/A     41  19  42 SW9       30.01F
HASKELL 1NW      N/A     41  27  57 SW12      30.03F
JAYTON 1SSE      N/A     44  19  37 SW8       30.04S
KNOX CITY 3NW    N/A     41  25  52 SW8       30.03F
LK A HENRY 1NW   N/A     43  19  38 SW9       30.05S
NORTHFIELD 1S    N/A     45  15  29 W10       29.98F
ODELL 4ENE       N/A     44  27  50 S13       29.98F
PADUCAH 10SW     N/A     39  17  41 SW6       29.99F
POST 1NE         N/A     46  15  28 W16       30.03S
RRING SPRGS 3N   N/A     45  13  27 W12       29.99F
SEYMOUR 3NW      N/A     44  27  51 S9        30.02F
SPUR 1W          N/A     37  18  46 SW2       30.03S
WEINERT 2NNE     N/A     42  27  54 SW12      30.03F
WHITE RVR 6NE    N/A     46  12  25 W14       30.01F
$$

TXZ052-054-060>062-072-078-127-140-154-169-260700-
TEXAS TECH WEST TEXAS MESONET/PERMIAN BASIN/
CONCHO VALLEY/BIG COUNTRY/EDWARDS PLATEAU

CITY           SKY/WX    TMP DP  RH WIND       PRES   REMARKS
COYANOSA 2N      N/A     41  14  34 SW9       30.17S
JUNCTION 1SSW    N/A     34  23  64 S5        30.20S WCI  30
MERTZON 3NNE     N/A     38  20  48 S5        30.17F WCI  34
SAN ANGELO 7NW   N/A     40  19  42 NW2       30.16R
STRLNG CT 4WSW   N/A     46  17  31 SW12      30.15S
ST LAWRNCE 5SW   N/A     39  15  38 SW9       30.15S WCI  32
SWEETWATR 11SW   N/A     47  16  28 SW13      30.12S
WALL 1E          N/A     42  21  42 S10       30.16S
$$

TXZ055-058-074-075-080-082-260700-
TEXAS TECH WEST TEXAS MESONET/FAR WEST/SOUTHWEST MOUNTAINS/TRANS PECOS

CITY           SKY/WX    TMP DP  RH WIND       PRES   REMARKS
PRSMN GAP BBNP   N/A     49  11  21 W13       30.24F
GUADLPE MTN NP   N/A     42   4  20 SW15      30.24R
$$